User: anonymous   Login
Location: Shades State Park
(39.9310°N, 87.0690°W)
Time: 02:34:36
(UTC-04:00)
Language:

H-2A R/B - Orbit

View from above orbital plane
View from above orbital plane
View from above satellite
View from above satellite

Ground track
Ground track

The orbit data is extracted from the following two-line orbital elements,

1 27601U 02056E   15110.44691323  .00000399  00000-0  16075-3 0  9992
2 27601 098.4554 190.6562 0073514 110.8299 310.0248 14.31578884644957
Epoch (UTC): 20 April 2015 10:43:33
Eccentricity: 0.0073514
inclination: 98.4554°
perigee height: 734 km
apogee height: 839 km
right ascension of ascending node: 190.6562°
argument of perigee: 110.8299°
revolutions per day: 14.31578884
mean anomaly at epoch: 310.0248°
orbit number at epoch: 64495

The dashed part of the orbit path shows where the satellite is in the earth's shadow,  

DLR